SCP
0 0 0 0 0 0 0 0 0 0 0 0 0 0 0 0 0 0 0 0 0 0 0 0 0 0 0 0 0 0 0 0 0 0 0 0 0 0 0 0 0 0 0 0
0 0 0 0 0 0 0 0 0 0 0 0 0 0 0 0 0 0 0 0 0 0 0 0 0 0 0 0 0 0 0 0 0 0 0 0 0 0 0 0 0 0 0 0
0 0 0 0 0 0 0 0 0 0 0 0 0 0 0 0 0 0 0 0 0 0 0 0 0 0 0 0 0 0 0 0 0 0 0 0 0 0 0 0 0 0 0 0
0 0 0 0 0 0 0 0 0 0 0 0 0 0 0 0 0 0 0 0 0 0 0 0 0 0 0 0 0 0 0 0 0 0 0 0 0 0 0 0 0 0 0 0
0 0 0 0 0 0 0 0 0 0 0 0 0 0 0 0 0 0 0 0 0 0 0 0 0 0 0 0 0 0 0 0 0 0 0 0 0 0 0 0 0 0 0 0
0 0 0 0 0 0 0 0 0 0 0 0 0 0 0 0 0 0 0 0 0 0 0 0 0 0 0 0 0 0 0 0 0 0 0 0 0 0 0 0 0 0 0 0
0 0 0 0 0 0 0 0 0 0 0 0 0 0 0 0 0 0 0 0 0 0 0 0 0 0 0 0 0 0 0 0 0 0 0 0 0 0 0 0 0 0 0 0
0 0 0 0 0 0 0 0 0 0 0 0 0 0 0 0 0 0 0 0 0 0 0 0 0 0 0 0 0 0 0 0 0 0 0 0 0 0 0 0 0 0 0 0
0 0 0 0 0 0 0 0 0 0 0 0 0 0 0 0 0 0 0 0 0 0 0 0 0 0 0 0 0 0 0 0 0 0 0 0 0 0 0 0 0 0 0 0
0 0 0 0 0 0 0 0 0 0 0 0 0 0 0 0 0 0 0 0 0 0 0 0 0 0 0 0 0 0 0 0 0 0 0 0 0 0 0 0 0 0 0 0
0 0 0 0 0 0 0 0 0 0 0 0 0 0 0 0 0 0 0 0 0 0 0 0 0 0 0 0 0 0 0 0 0 0 0 0 0 0 0 0 0 0 0 0
0 0 0 0 0 0 0 0 0 0 0 0 0 0 0 0 0 0 0 0 0 0 0 0 0 0 0 0 0 0 0 0 0 0 0 0 0 0 0 0 0 0 0 0
0 0 0 0 0 0 0 0 0 0 0 0 0 0 0 0 0 0 0 0 0 0 0 0 0 0 0 0 0 0 0 0 0 0 0 0 0 0 0 0 0 0 0 0
0 0 0 0 0 0 0 0 0 0 0 0 0 0 0 0 0 0 0 0 0 0 0 0 0 0 0 0 0 0 0 0 0 0 0 0 0 0 0 0 0 0 0 0
0 0 0 0 0 0 0 0 0 0 0 0 0 0 0 0 0 0 0 0 0 0 0 0 1 1 0 0 0 0 0 0 0 0 0 0 0 0 0 0 0 0 0 0
0 0 0 0 0 0 0 0 0 0 0 0 0 0 0 0 0 0 0 0 0 0 0 0 1 1 0 0 0 0 0 0 0 0 0 0 0 0 0 0 0 0 0 0
0 0 0 0 0 0 0 0 0 0 0 0 0 0 0 0 0 0 0 0 0 0 0 0 0 0 0 0 0 0 0 0 0 0 0 0 0 0 0 0 0 0 0 0
0 0 0 0 0 0 0 0 0 0 0 0 0 0 0 0 0 0 0 0 0 0 0 0 0 0 0 0 0 0 0 0 0 0 0 0 0 0 0 0 0 0 0 0
0 0 0 0 0 0 0 0 0 0 0 0 0 0 0 0 0 0 0 0 0 0 0 0 0 0 0 0 0 0 0 0 0 0 0 0 0 0 0 0 0 1 1 1
0 0 0 0 0 0 0 0 0 0 0 0 0 0 0 0 0 0 0 0 0 0 0 0 0 0 0 0 0 0 0 0 0 0 0 0 0 0 0 0 0 1 1 1
0 0 0 0 0 0 0 0 0 0 0 0 0 0 0 0 0 0 0 0 0 0 0 0 0 0 0 0 0 0 0 0 0 0 0 0 0 0 0 0 0 0 0 0
0 0 0 0 0 0 0 0 0 0 0 0 0 0 0 0 0 0 0 0 0 0 0 0 0 0 0 0 0 0 0 0 0 0 0 0 0 0 0 0 0 0 0 0
0 0 0 0 0 0 0 0 0 0 0 0 0 0 0 0 0 0 0 0 0 0 0 0 0 0 0 0 0 0 0 0 0 0 0 0 0 0 0 0 0 0 0 0
0 0 0 0 0 0 0 0 0 0 0 0 0 0 0 0 0 0 0 0 0 0 0 0 0 0 0 0 0 0 0 0 0 0 0 0 0 0 0 0 0 0 0 0
0 0 0 0 0 0 0 0 0 0 0 0 0 0 0 0 0 0 0 0 0 0 0 0 0 0 0 0 0 0 0 0 0 0 0 0 0 0 0 0 0 0 0 0
0 0 0 0 0 0 0 0 0 0 0 0 0 0 0 0 0 0 0 0 0 0 0 0 0 0 0 0 0 0 0 0 0 0 0 0 0 0 0 0 0 0 0 0
Wind_Speed
2 3 2 5 6 4 3 2 3 4 1 2 3 4 4 5 6 7 8 8 8 9 6 6 6 6 6 5 5 5 4 4 3 2 2 1 1 1 0 1 1 1 1 0
4 3 6 3 3 3 2 1 2 3 1 2 1 3 2 5 8 8 9 9 9 7 5 6 6 7 7 7 6 5 4 4 4 3 2 2 1 1 1 1 1 1 1 1
5 5 2 2 2 2 2 4 4 3 2 3 2 4 2 2 3 3 5 6 7 9 9 8 8 8 7 8 7 6 5 4 3 3 2 2 2 1 1 1 1 1 1 1
4 4 1 1 2 4 4 5 5 2 2 2 2 2 5 2 2 5 6 6 8 8 8 8 8 8 8 8 7 6 5 4 4 4 3 3 2 2 2 1 1 1 1 1
4 2 2 3 4 6 5 1 2 2 3 2 3 1 7 1 3 7 7 7 8 9 9 9 10 9 7 7 6 6 5 5 4 4 4 4 2 2 1 0 0 1 1 1
5 2 3 4 1 3 3 5 6 6 5 1 2 2 6 3 6 5 6 7 7 7 8 8 7 6 6 6 6 6 6 5 5 5 5 5 4 3 2 1 1 1 1 1
4 3 2 2 2 2 4 6 4 5 4 4 2 2 8 6 5 6 6 7 6 6 7 7 8 8 8 8 8 7 7 6 5 6 5 5 5 4 4 3 2 2 1 1
2 5 3 2 5 5 3 8 7 5 4 4 2 4 7 5 4 3 3 4 4 5 6 8 8 8 8 9 8 8 7 6 6 6 5 5 4 3 3 3 3 2 2 2
6 6 4 2 2 7 5 3 5 7 2 1 4 6 8 3 3 2 1 1 3 5 6 7 7 6 7 7 7 8 7 6 6 6 5 4 4 4 3 3 2 2 2 2
7 3 4 3 4 3 4 8 6 6 5 3 4 4 5 5 4 3 2 2 3 3 4 4 5 6 6 6 6 6 6 6 5 6 5 4 4 4 3 2 2 2 2 2
5 4 4 3 2 3 3 4 5 5 5 6 3 7 5 5 5 4 5 4 4 4 4 4 4 4 4 4 5 5 5 4 4 5 4 4 3 3 3 2 3 2 2 2
3 5 2 5 3 1 4 5 7 5 4 4 4 8 4 3 3 3 3 2 2 3 2 3 3 3 3 3 4 4 5 5 4 3 3 3 3 3 3 3 2 2 2 3
5 6 2 5 5 3 2 2 3 5 5 5 4 7 3 2 1 1 1 1 1 2 2 2 2 3 3 3 3 3 4 4 4 4 4 2 3 3 3 3 2 2 2 3
6 5 6 8 7 3 1 1 3 5 4 4 6 6 5 4 3 2 0 1 2 2 3 2 2 2 1 1 1 2 3 3 4 4 4 4 4 4 3 3 3 3 3 3
5 3 3 3 3 3 2 2 3 4 6 7 6 5 6 4 3 2 0 2 2 2 2 2 2 2 1 1 2 2 2 3 4 4 4 4 3 3 2 3 3 3 3 3
4 4 2 1 0 2 1 1 2 2 3 4 2 4 4 2 1 1 1 2 2 1 1 1 1 2 1 2 2 2 2 2 3 4 4 3 2 2 3 3 3 3 3 2
2 4 4 2 2 1 3 4 3 2 2 4 5 5 2 1 2 3 3 3 3 3 2 2 3 3 3 3 3 3 3 2 3 3 3 3 3 4 4 4 3 3 3 3
5 4 3 2 2 5 7 2 3 3 1 2 2 3 3 3 3 2 3 4 3 2 2 2 2 3 3 3 2 2 2 2 3 3 2 2 2 3 3 3 3 3 3 3
4 6 4 4 3 4 4 2 2 3 3 2 3 1 0 0 1 2 2 2 2 3 2 3 3 2 2 2 2 2 2 1 2 2 2 2 3 2 3 3 3 3 2 3
4 4 5 4 4 6 6 2 1 3 3 3 3 3 2 2 0 4 3 2 2 1 1 1 1 0 0 1 2 2 2 1 2 3 3 3 3 3 3 3 3 2 2 3
3 3 3 3 3 6 5 3 1 4 6 2 3 4 3 4 5 4 2 2 2 1 1 1 1 1 1 2 2 2 2 3 3 2 2 2 3 3 3 2 2 2 2 2
4 3 3 4 3 6 3 1 3 5 2 1 1 2 2 3 2 1 1 2 1 0 1 1 1 0 0 1 2 2 3 3 1 2 2 3 2 2 2 1 2 1 2 2
3 5 5 6 6 4 2 2 2 2 2 1 1 1 1 1 2 2 1 1 1 1 0 0 1 0 0 1 2 3 3 2 2 1 2 3 2 2 2 2 2 2 2 2
2 1 2 2 4 3 3 2 2 1 1 1 1 2 2 2 2 2 1 1 1 1 1 1 1 0 1 1 1 2 2 1 1 2 2 2 2 1 1 1 2 2 3 3
3 2 1 2 4 3 3 2 2 2 1 1 2 2 2 2 2 2 2 2 1 1 1 1 1 1 1 1 1 1 1 1 1 1 2 2 2 2 1 2 2 3 3 4
4 5 5 5 5 3 5 3 2 1 2 1 1 3 3 1 2 1 1 1 1 1 1 1 1 1 1 1 2 2 1 1 2 1 1 1 1 1 1 1 2 3 3 4
Wind_Direction
55 76 218 221 195 192 176 183 272 273 237 150 217 246 216 191 190 191 196 200 203 209 201 181 177 171 166 168 169 172 169 167 153 150 155 153 193 221 234 238 245 248 256 249
39 272 239 208 181 169 173 208 267 300 10 152 222 281 231 194 206 200 198 204 207 205 190 185 184 178 179 182 182 180 181 174 171 169 159 151 151 194 214 284 304 282 277 274
192 239 226 160 163 155 208 207 223 232 356 37 53 339 318 253 220 211 206 206 204 203 199 192 189 189 185 189 188 186 184 178 171 156 125 105 78 49 33 340 303 294 278 261
229 253 214 209 216 165 248 227 205 192 95 324 59 290 290 257 251 229 218 206 207 206 199 193 191 190 194 193 183 179 178 176 169 156 152 156 165 189 221 223 258 293 287 280
242 219 186 220 227 175 217 150 123 109 122 38 15 136 289 323 264 247 230 213 209 204 195 193 196 194 190 182 179 180 174 175 168 164 167 166 182 201 211 177 297 303 310 305
244 246 209 209 198 168 150 68 55 48 70 29 259 172 279 250 238 254 235 219 208 200 195 194 192 180 181 177 175 174 175 186 178 173 173 179 185 189 185 206 258 287 299 302
311 305 263 165 94 25 88 87 35 4 14 255 255 189 251 259 252 237 231 222 207 195 191 190 187 186 186 185 184 179 179 190 185 180 185 189 192 190 197 207 218 239 270 289
208 283 256 194 179 176 165 138 155 193 216 272 323 234 254 274 286 259 221 201 187 190 191 192 194 192 192 190 186 183 186 193 188 187 193 193 193 193 204 209 210 219 233 252
182 250 281 240 186 142 139 164 160 133 149 256 285 289 300 317 351 14 65 137 192 197 197 197 191 188 187 187 188 188 188 193 192 193 190 190 192 195 206 213 211 219 233 237
162 227 290 306 72 43 130 141 104 119 148 236 284 278 265 290 299 306 286 232 221 199 187 185 185 186 185 183 180 176 179 191 193 189 190 190 194 199 199 197 214 225 237 236
140 169 299 14 139 187 105 100 106 116 149 160 231 265 242 232 235 232 239 233 206 192 187 183 182 179 170 165 169 174 171 173 183 189 186 183 189 190 189 202 221 226 234 228
144 131 237 268 268 207 155 162 148 152 206 169 178 261 285 239 237 215 231 237 195 176 163 157 152 143 149 164 174 180 171 179 187 172 165 185 188 188 192 212 227 218 226 233
134 116 85 342 337 4 82 133 144 127 121 151 172 259 318 342 332 237 200 224 108 102 100 108 120 141 159 171 180 182 178 181 174 153 150 181 195 199 210 217 223 222 227 239
117 116 161 193 216 210 206 169 149 130 147 189 213 240 303 320 311 302 287 125 100 103 112 118 125 130 145 155 178 191 188 182 173 165 169 188 211 205 217 221 219 221 224 233
100 136 195 222 224 167 185 219 179 176 184 185 213 214 257 266 265 265 37 88 88 93 111 146 144 134 152 177 180 201 200 189 182 177 181 202 217 208 217 227 224 224 228 234
73 133 133 328 256 169 206 265 188 189 176 183 189 247 250 265 55 66 122 136 143 173 180 175 146 128 181 215 206 200 198 185 174 181 193 200 208 214 226 232 229 224 232 236
87 126 126 226 281 36 267 243 205 195 196 180 208 228 206 150 191 206 194 176 182 199 209 194 171 168 202 218 206 197 195 170 165 182 195 191 196 214 228 234 233 233 237 233
138 119 129 148 121 218 244 242 175 167 227 196 200 213 193 198 232 242 210 191 194 197 204 220 214 200 210 210 202 182 139 156 165 176 193 202 213 223 231 232 237 241 235 233
148 137 123 129 173 259 285 248 169 171 248 211 184 208 243 76 26 310 260 212 213 213 210 220 228 217 203 191 176 141 137 171 177 192 206 216 217 226 235 240 243 242 238 245
66 96 116 130 158 222 240 261 218 124 257 242 189 193 202 119 129 265 273 263 244 223 200 212 208 129 163 209 163 154 170 187 222 227 225 219 213 219 234 242 246 244 236 246
51 59 117 156 200 254 259 295 102 164 240 255 198 200 187 197 216 239 266 267 248 232 233 186 147 176 213 207 175 183 201 221 228 229 228 228 219 219 226 238 255 243 233 241
167 149 168 149 185 248 296 79 167 216 264 250 211 209 215 232 243 243 231 224 203 196 290 162 138 209 277 196 177 197 234 244 210 196 217 230 229 232 232 231 265 254 228 234
190 188 182 187 212 244 267 228 245 198 209 236 225 246 201 240 261 268 252 240 201 179 215 234 150 113 344 203 184 210 247 226 200 197 228 232 237 238 222 214 231 249 246 242
273 137 135 260 270 277 294 298 295 223 216 245 237 237 212 242 250 260 254 252 198 162 164 130 103 75 319 324 277 240 256 222 189 217 244 248 237 248 262 248 234 230 238 245
236 162 143 257 274 305 309 303 301 325 336 352 336 307 249 221 248 237 231 228 210 172 164 131 137 181 286 306 311 301 252 191 207 237 254 257 242 224 236 260 253 243 244 239
217 182 179 226 233 214 256 275 298 309 308 316 349 329 326 276 244 233 231 214 173 153 119 96 111 113 348 335 335 323 297 216 202 232 253 254 252 249 240 251 299 307 271 268